Location: Unspecified
(0.0000°N, 0.0000°E)
Time: 15:50:11
(UTC+00:00)

Altair - Pass Details

Date: 26 November 2019
Orbit: 1501 x 1683 km, 47.2° (Epoch: 08 July)

Event Time Altitude Azimuth Distance (km) Brightness Sun altitude
Rises 22:19:31 0° 230° (SW) 4,836 10.6 -60.0°
Reaches altitude 10° 22:22:47 10° 235° (SW) 3,824 9.9 -60.5°
Enters shadow 22:24:11 15° 237° (WSW) 3,402 9.5 -60.8°
